When you browse on this site, cookies collect data to enhance your experience and personalize the content and advertising you see.
Visit our Privacy Policy to learn more. By continuing to use the site, you agree to this use of cookies and data.
EN

Hourly Weather Goya

Today, 8 August, Saturday

Time Temperature Precipitation Wind Pressure Humidity
00:00 +22°C° 0 mm 1 mps 760 mmHg 61%
01:00 +22°C° 0 mm 1 mps 760 mmHg 63%
02:00 +22°C° 0 mm 1 mps 760 mmHg 64%
03:00 +21°C° 0 mm 1 mps 760 mmHg 67%
04:00 +21°C° 0 mm 1 mps 760 mmHg 70%
05:00 +18°C° 0 mm 0 mps 760 mmHg 73%
06:00 +21°C° 0 mm 1 mps 760 mmHg 71%
07:00 +21°C° 0 mm 2 mps 760 mmHg 70%
08:00 +21°C° 0 mm 3 mps 761 mmHg 68%
09:00 +24°C° 0 mm 3 mps 761 mmHg 60%
10:00 +26°C° 0 mm 3 mps 761 mmHg 51%
11:00 +29°C° 0 mm 3 mps 760 mmHg 43%
12:00 +30°C° 0 mm 3 mps 760 mmHg 39%
13:00 +32°C° 0 mm 4 mps 759 mmHg 36%
14:00 +33°C° 0 mm 4 mps 758 mmHg 33%
15:00 +30°C° 0 mm 3 mps 758 mmHg 37%
16:00 +29°C° 0 mm 2 mps 758 mmHg 42%
17:00 +28°C° 0 mm 2 mps 758 mmHg 47%
18:00 +26°C° 0 mm 2 mps 758 mmHg 51%
19:00 +25°C° 0 mm 2 mps 758 mmHg 55%
20:00 +23°C° 0 mm 2 mps 759 mmHg 59%
21:00 +21°C° 0 mm 2 mps 759 mmHg 60%
22:00 +21°C° 0 mm 2 mps 759 mmHg 61%
23:00 +21°C° 0 mm 2 mps 759 mmHg 62%

Tomorrow, 9 August, Sunday

Time Temperature Precipitation Wind Pressure Humidity
00:00 +20°C° 0 mm 3 mps 759 mmHg 63%
01:00 +20°C° 0 mm 3 mps 758 mmHg 64%
02:00 +20°C° 0 mm 3 mps 758 mmHg 65%
03:00 +20°C° 0 mm 3 mps 758 mmHg 65%
04:00 +19°C° 0 mm 3 mps 758 mmHg 66%
05:00 +19°C° 0 mm 3 mps 757 mmHg 66%
06:00 +20°C° 0 mm 3 mps 758 mmHg 64%
07:00 +20°C° 0 mm 4 mps 758 mmHg 62%
08:00 +21°C° 0 mm 4 mps 758 mmHg 60%
09:00 +25°C° 0 mm 4 mps 758 mmHg 51%
10:00 +27°C° 0 mm 4 mps 758 mmHg 43%
11:00 +30°C° 0 mm 4 mps 757 mmHg 34%
12:00 +32°C° 0 mm 4 mps 756 mmHg 32%
13:00 +33°C° 0 mm 4 mps 756 mmHg 30%
14:00 +33°C° 0 mm 4 mps 755 mmHg 27%
15:00 +32°C° 0 mm 4 mps 754 mmHg 32%
16:00 +30°C° 0 mm 3 mps 754 mmHg 37%
17:00 +28°C° 0 mm 2 mps 753 mmHg 41%
18:00 +27°C° 0 mm 3 mps 753 mmHg 44%
19:00 +25°C° 0 mm 3 mps 753 mmHg 46%
20:00 +24°C° 0 mm 3 mps 753 mmHg 49%
21:00 +24°C° 0 mm 3 mps 753 mmHg 50%
22:00 +22°C° 0 mm 4 mps 753 mmHg 50%
23:00 +22°C° 0 mm 4 mps 753 mmHg 51%

Day after tomorrow, 10 August, Monday

Time Temperature Precipitation Wind Pressure Humidity
00:00 +22°C° 0 mm 4 mps 752 mmHg 52%
01:00 +22°C° 0 mm 4 mps 751 mmHg 53%
02:00 +21°C° 0 mm 4 mps 751 mmHg 53%
03:00 +21°C° 0 mm 3 mps 751 mmHg 54%
04:00 +20°C° 0 mm 3 mps 750 mmHg 55%
05:00 +20°C° 0 mm 3 mps 750 mmHg 56%
06:00 +21°C° 0 mm 3 mps 750 mmHg 54%
07:00 +21°C° 0 mm 3 mps 751 mmHg 52%
08:00 +22°C° 0 mm 3 mps 751 mmHg 51%
09:00 +26°C° 0 mm 4 mps 751 mmHg 44%
10:00 +28°C° 0 mm 4 mps 751 mmHg 38%
11:00 +32°C° 0 mm 4 mps 751 mmHg 32%
12:00 +32°C° 0 mm 4 mps 751 mmHg 32%
13:00 +32°C° 0 mm 4 mps 751 mmHg 32%
14:00 +33°C° 0 mm 4 mps 751 mmHg 32%
15:00 +30°C° 0 mm 5 mps 751 mmHg 39%
16:00 +28°C° 0 mm 5 mps 752 mmHg 45%
17:00 +26°C° 0 mm 6 mps 752 mmHg 52%
18:00 +24°C° 0 mm 6 mps 753 mmHg 51%
19:00 +22°C° 0 mm 7 mps 755 mmHg 49%
20:00 +21°C° 0 mm 7 mps 756 mmHg 48%
21:00 +20°C° 0 mm 7 mps 757 mmHg 42%
22:00 +18°C° 0 mm 7 mps 758 mmHg 37%
23:00 +17°C° 0 mm 7 mps 758 mmHg 31%

11 August, Tuesday

Time Temperature Precipitation Wind Pressure Humidity
00:00 +16°C° 0 mm 7 mps 759 mmHg 29%
01:00 +16°C° 0 mm 7 mps 759 mmHg 27%
02:00 +15°C° 0 mm 6 mps 760 mmHg 25%
03:00 +14°C° 0 mm 6 mps 760 mmHg 25%
04:00 +13°C° 0 mm 6 mps 760 mmHg 25%
05:00 +11°C° 0 mm 6 mps 761 mmHg 25%
06:00 +10°C° 0 mm 5 mps 761 mmHg 27%
07:00 +9°C° 0 mm 5 mps 761 mmHg 29%
08:00 +9°C° 0 mm 5 mps 762 mmHg 30%
09:00 +9°C° 0 mm 5 mps 762 mmHg 29%
10:00 +9°C° 0 mm 5 mps 762 mmHg 29%
11:00 +9°C° 0 mm 5 mps 762 mmHg 28%
12:00 +10°C° 0 mm 4 mps 761 mmHg 29%
13:00 +10°C° 0 mm 4 mps 761 mmHg 30%
14:00 +10°C° 0 mm 4 mps 760 mmHg 32%
15:00 +10°C° 0 mm 4 mps 760 mmHg 33%
16:00 +10°C° 0 mm 4 mps 759 mmHg 34%
17:00 +10°C° 0 mm 4 mps 759 mmHg 35%
18:00 +10°C° 0 mm 4 mps 759 mmHg 36%
19:00 +10°C° 0 mm 4 mps 759 mmHg 37%
20:00 +10°C° 0 mm 3 mps 760 mmHg 38%
21:00 +10°C° 0 mm 3 mps 759 mmHg 40%
22:00 +10°C° 0 mm 3 mps 759 mmHg 41%
23:00 +10°C° 0 mm 3 mps 759 mmHg 42%

12 August, Wednesday

Time Temperature Precipitation Wind Pressure Humidity
00:00 +10°C° 0 mm 3 mps 759 mmHg 44%
01:00 +10°C° 0 mm 3 mps 759 mmHg 46%
02:00 +10°C° 0 mm 3 mps 758 mmHg 47%
03:00 +10°C° 0 mm 3 mps 758 mmHg 48%
04:00 +10°C° 0 mm 3 mps 757 mmHg 49%
05:00 +9°C° 0 mm 3 mps 757 mmHg 49%
06:00 +10°C° 0 mm 4 mps 757 mmHg 49%
07:00 +10°C° 0 mm 4 mps 757 mmHg 49%
08:00 +10°C° 0 mm 4 mps 757 mmHg 49%
09:00 +11°C° 0 mm 3 mps 757 mmHg 47%
10:00 +12°C° 0 mm 3 mps 757 mmHg 44%
11:00 +13°C° 0 mm 3 mps 757 mmHg 42%
12:00 +14°C° 0 mm 3 mps 756 mmHg 41%
13:00 +16°C° 0 mm 3 mps 755 mmHg 39%
14:00 +17°C° 0 mm 3 mps 754 mmHg 38%
15:00 +16°C° 0 mm 3 mps 754 mmHg 41%
16:00 +16°C° 0 mm 3 mps 754 mmHg 45%
17:00 +14°C° 0 mm 3 mps 754 mmHg 48%
18:00 +13°C° 0 mm 3 mps 755 mmHg 53%
19:00 +11°C° 0 mm 3 mps 755 mmHg 58%
20:00 +9°C° 0 mm 2 mps 755 mmHg 64%
21:00 +9°C° 0 mm 2 mps 756 mmHg 66%
22:00 +8°C° 0 mm 2 mps 756 mmHg 69%
23:00 +7°C° 0 mm 2 mps 756 mmHg 71%

13 August, Thursday

Time Temperature Precipitation Wind Pressure Humidity
00:00 +7°C° 0 mm 2 mps 756 mmHg 73%
01:00 +7°C° 0 mm 2 mps 756 mmHg 75%
02:00 +7°C° 0 mm 1 mps 756 mmHg 77%
03:00 +6°C° 0 mm 2 mps 756 mmHg 78%
04:00 +6°C° 0 mm 2 mps 756 mmHg 79%
05:00 +5°C° 0 mm 2 mps 756 mmHg 80%
06:00 +6°C° 0 mm 2 mps 757 mmHg 75%
07:00 +7°C° 0 mm 3 mps 757 mmHg 71%
08:00 +8°C° 0 mm 3 mps 758 mmHg 66%
09:00 +11°C° 0 mm 3 mps 758 mmHg 57%
10:00 +14°C° 0 mm 3 mps 758 mmHg 47%
11:00 +17°C° 0 mm 3 mps 758 mmHg 38%
12:00 +18°C° 0 mm 3 mps 757 mmHg 35%
13:00 +19°C° 0 mm 2 mps 757 mmHg 32%
14:00 +20°C° 0 mm 2 mps 756 mmHg 29%
15:00 +19°C° 0 mm 2 mps 756 mmHg 33%
16:00 +18°C° 0 mm 2 mps 756 mmHg 37%
17:00 +17°C° 0 mm 2 mps 755 mmHg 42%
18:00 +15°C° 0 mm 2 mps 755 mmHg 47%
19:00 +13°C° 0 mm 2 mps 756 mmHg 52%
20:00 +10°C° 0 mm 2 mps 756 mmHg 57%
21:00 +10°C° 0 mm 2 mps 756 mmHg 60%
22:00 +9°C° 0 mm 2 mps 756 mmHg 63%
23:00 +9°C° 0 mm 1 mps 756 mmHg 66%
Show more